QTR912 EDDF-OTHH

Flight info

Callsign QTR912
Flight time N/A
Altitude 37000
Route CINDY8S/18 CINDY Z74 LAMPU DCT NOMBO Y161 MAH DCT VAVOR DCT RADIZ/N0473F390 DCT NEMEK DCT VRANA DCT DIMIS DCT IPTES UL604 SALUN N705 MMA P751 DASUM Y234 FYM M872 WEJ/N0479F410 L604 GAS G662 KSA N687 KINIB Z511 GISRA L681 ORLEK
Aircraft A35K/H-SDE2E3GHIJ1J3J4J5LM1ORWXY/LB1D1

Departure

Time 2026-05-04 09:27
Airport Frankfurt Main Airport (EDDF)

Arrival

Time N/A
Airport Hamad International Airport (OTHH)
Time Latitude Longitude Altitude Speed Heading
2026-05-04 08:46 50.03026 8.57444 362 ft 0 kts 25°
2026-05-04 09:15 50.03020 8.57440 362 ft 4 kts 22°
2026-05-04 09:15 50.02995 8.57428 362 ft 4 kts
2026-05-04 09:17 50.02910 8.57496 360 ft 0 kts 295°
2026-05-04 09:20 50.02921 8.57464 365 ft 8 kts 297°
2026-05-04 09:21 50.02954 8.57340 366 ft 17 kts 294°
2026-05-04 09:21 50.03008 8.57157 363 ft 20 kts 294°
2026-05-04 09:21 50.03068 8.56974 367 ft 15 kts 310°
2026-05-04 09:21 50.03166 8.56894 367 ft 18 kts 339°
2026-05-04 09:22 50.03273 8.56858 367 ft 16 kts 20°
2026-05-04 09:22 50.03328 8.57012 364 ft 20 kts 70°
2026-05-04 09:22 50.03390 8.57271 366 ft 28 kts 69°
2026-05-04 09:22 50.03461 8.57563 365 ft 30 kts 69°
2026-05-04 09:23 50.03525 8.57835 371 ft 25 kts 69°
2026-05-04 09:23 50.03589 8.58101 369 ft 27 kts 69°
2026-05-04 09:23 50.03654 8.58372 369 ft 27 kts 70°
2026-05-04 09:23 50.03716 8.58636 371 ft 21 kts 70°
2026-05-04 09:25 50.03960 8.58457 375 ft 0 kts 249°
2026-05-04 09:26 50.03938 8.58366 376 ft 33 kts 249°
2026-05-04 09:26 50.03753 8.57595 367 ft 116 kts 250°
2026-05-04 09:27 50.03390 8.56073 397 ft 178 kts 250°
2026-05-04 09:27 50.02991 8.54302 1440 ft 166 kts 251°
2026-05-04 09:27 50.02559 8.52556 2140 ft 191 kts 244°
2026-05-04 09:27 50.01703 8.50823 2750 ft 209 kts 225°
2026-05-04 09:28 50.00536 8.49487 3745 ft 209 kts 207°
2026-05-04 09:28 49.99126 8.48982 4677 ft 214 kts 179°
2026-05-04 09:28 49.97740 8.49857 5521 ft 224 kts 140°
2026-05-04 09:28 49.96805 8.51865 6446 ft 230 kts 121°
2026-05-04 09:29 49.96046 8.54056 7232 ft 241 kts 120°
2026-05-04 09:29 49.95209 8.56486 7693 ft 268 kts 121°
2026-05-04 09:29 49.94351 8.59138 8481 ft 282 kts 114°
2026-05-04 09:29 49.93945 8.62194 9541 ft 290 kts 97°
2026-05-04 09:30 49.93813 8.65322 10444 ft 301 kts 96°
2026-05-04 09:30 49.93431 8.68625 10910 ft 324 kts 109°
2026-05-04 09:30 49.92538 8.71933 11463 ft 339 kts 124°
2026-05-04 09:30 49.91192 8.74985 12361 ft 345 kts 130°
2026-05-04 09:31 49.89654 8.77871 13339 ft 350 kts 134°
2026-05-04 09:31 49.87995 8.80666 14222 ft 355 kts 136°
2026-05-04 09:31 49.86267 8.83429 15089 ft 359 kts 137°
2026-05-04 09:31 49.84509 8.86196 15954 ft 363 kts 137°
2026-05-04 09:32 49.82729 8.89004 16851 ft 367 kts 138°
2026-05-04 09:32 49.80932 8.91860 17711 ft 373 kts 137°
2026-05-04 09:34 49.67810 9.13012 23235 ft 406 kts 137°
2026-05-04 09:34 49.65841 9.16176 23788 ft 410 kts 137°
2026-05-04 09:34 49.63859 9.19361 23990 ft 411 kts 138°
2026-05-04 09:34 49.61876 9.22545 24028 ft 413 kts 138°
2026-05-04 09:35 49.59878 9.25744 24019 ft 414 kts 138°
2026-05-04 09:35 49.57879 9.28940 24112 ft 415 kts 138°
2026-05-04 09:35 49.55869 9.32151 24572 ft 418 kts 138°
2026-05-04 09:35 49.53844 9.35381 25278 ft 420 kts 138°
2026-05-04 09:37 49.39148 9.58685 29643 ft 447 kts 138°
2026-05-04 09:37 49.36971 9.62120 30201 ft 451 kts 138°
2026-05-04 09:38 49.34772 9.65587 30675 ft 455 kts 138°
2026-05-04 09:38 49.32552 9.69076 31170 ft 457 kts 139°
2026-05-04 09:38 49.30310 9.72535 31664 ft 460 kts 139°
2026-05-04 09:38 49.28025 9.76013 32095 ft 464 kts 140°
2026-05-04 09:39 49.25721 9.79503 32524 ft 468 kts 140°
2026-05-04 09:39 49.23396 9.83019 32882 ft 473 kts 140°
2026-05-04 09:39 49.21047 9.86574 33269 ft 476 kts 140°
2026-05-04 09:39 49.18689 9.90146 33689 ft 479 kts 140°
2026-05-04 09:40 49.16312 9.93749 34055 ft 482 kts 140°
2026-05-04 09:40 49.13924 9.97365 34393 ft 485 kts 140°
2026-05-04 09:40 49.11521 10.01002 34716 ft 487 kts 140°
2026-05-04 09:40 49.09121 10.04630 35177 ft 486 kts 140°
2026-05-04 09:41 49.06720 10.08257 35647 ft 484 kts 139°
2026-05-04 09:42 48.89760 10.32274 37063 ft 466 kts 141°
2026-05-04 09:43 48.84998 10.38969 37062 ft 466 kts 141°
2026-05-04 09:43 48.80287 10.45749 37061 ft 468 kts 138°
2026-05-04 09:44 48.75834 10.52961 37047 ft 469 kts 136°
2026-05-04 09:46 48.57969 10.81674 37049 ft 468 kts 137°
2026-05-04 09:46 48.53488 10.88809 37037 ft 468 kts 137°
2026-05-04 09:47 48.49021 10.95962 37048 ft 468 kts 137°
2026-05-04 09:49 48.30918 11.24124 37036 ft 468 kts 137°
2026-05-04 09:51 48.18011 11.52674 37041 ft 477 kts 123°
2026-05-04 09:51 48.14700 11.61281 37028 ft 477 kts 123°
2026-05-04 09:52 48.11366 11.69856 37034 ft 477 kts 123°
2026-05-04 09:52 48.08020 11.78417 37031 ft 476 kts 123°
2026-05-04 09:53 48.04689 11.86908 37029 ft 476 kts 123°
2026-05-04 09:53 48.01338 11.95426 37019 ft 476 kts 123°
2026-05-04 09:54 47.97974 12.03951 37009 ft 476 kts 123°
2026-05-04 09:54 47.94548 12.12394 37029 ft 474 kts 127°
2026-05-04 09:55 47.90140 12.19572 37009 ft 468 kts 141°
2026-05-04 09:55 47.85203 12.25903 37032 ft 468 kts 143°
2026-05-04 09:56 47.80187 12.32098 37022 ft 468 kts 143°
2026-05-04 09:56 47.75186 12.38278 37021 ft 468 kts 143°
2026-05-04 09:57 47.70193 12.44475 37016 ft 467 kts 143°
2026-05-04 09:57 47.65204 12.50665 37022 ft 467 kts 143°
2026-05-04 09:58 47.60250 12.56905 37024 ft 468 kts 140°
2026-05-04 09:58 47.55552 12.63594 37013 ft 469 kts 137°
2026-05-04 10:00 47.36773 12.90330 37035 ft 468 kts 139°
2026-05-04 10:04 47.04375 13.35291 37068 ft 469 kts 139°
2026-05-04 10:04 46.99595 13.41852 37263 ft 475 kts 139°
2026-05-04 10:04 46.97167 13.45180 37413 ft 481 kts 139°
2026-05-04 10:05 46.94719 13.48534 37618 ft 483 kts 139°
2026-05-04 10:05 46.92261 13.51898 37922 ft 484 kts 139°
2026-05-04 10:05 46.89804 13.55255 38308 ft 483 kts 139°
2026-05-04 10:05 46.87347 13.58608 38702 ft 482 kts 139°
2026-05-04 10:06 46.84925 13.61908 38968 ft 482 kts 139°
2026-05-04 10:06 46.79981 13.68626 39094 ft 481 kts 139°
2026-05-04 10:08 46.62834 13.91811 39098 ft 482 kts 139°
2026-05-04 10:08 46.57905 13.98433 39099 ft 483 kts 139°
2026-05-04 10:09 46.52967 14.05052 39102 ft 483 kts 139°
2026-05-04 10:09 46.48025 14.11661 39100 ft 483 kts 139°
2026-05-04 10:10 46.43064 14.18274 39107 ft 485 kts 139°
2026-05-04 10:10 46.38092 14.24883 39105 ft 485 kts 139°
2026-05-04 10:11 46.33125 14.31473 39103 ft 485 kts 139°
2026-05-04 10:11 46.28152 14.38056 39103 ft 485 kts 139°
2026-05-04 10:12 46.23175 14.44624 39102 ft 485 kts 139°
2026-05-04 10:12 46.18185 14.51193 39105 ft 486 kts 139°
2026-05-04 10:13 46.13178 14.57767 39102 ft 487 kts 139°
2026-05-04 10:13 46.08159 14.64342 39102 ft 488 kts 139°
2026-05-04 10:14 46.03133 14.70907 39103 ft 488 kts 139°
2026-05-04 10:16 45.82950 14.97101 39100 ft 490 kts 139°
2026-05-04 10:16 45.77917 15.03592 39103 ft 490 kts 139°
2026-05-04 10:17 45.72848 15.10113 39101 ft 491 kts 139°
2026-05-04 10:19 45.52432 15.36243 39097 ft 493 kts 139°
2026-05-04 10:19 45.47335 15.42775 39101 ft 493 kts 139°
2026-05-04 10:20 45.42230 15.49303 39105 ft 493 kts 139°
2026-05-04 10:20 45.37127 15.55803 39105 ft 493 kts 139°
2026-05-04 10:21 45.32012 15.62301 39102 ft 493 kts 139°
2026-05-04 10:21 45.26890 15.68792 39103 ft 495 kts 139°
2026-05-04 10:22 45.19165 15.78550 39102 ft 496 kts 139°
2026-05-04 10:23 45.14015 15.85037 39102 ft 496 kts 139°
2026-05-04 10:25 44.93317 16.10937 39107 ft 498 kts 139°
2026-05-04 10:25 44.88121 16.17397 39109 ft 498 kts 139°
2026-05-04 10:26 44.82919 16.23849 39109 ft 499 kts 139°
2026-05-04 10:26 44.77704 16.30302 39110 ft 499 kts 139°
2026-05-04 10:27 44.72488 16.36741 39110 ft 499 kts 139°
2026-05-04 10:27 44.67265 16.43171 39112 ft 499 kts 139°
2026-05-04 10:28 44.62038 16.49588 39123 ft 499 kts 139°
2026-05-04 10:28 44.56799 16.56007 39114 ft 500 kts 139°
2026-05-04 10:29 44.51550 16.62422 39120 ft 501 kts 139°
2026-05-04 10:29 44.46295 16.68828 39127 ft 501 kts 139°
2026-05-04 10:30 44.41034 16.75224 39130 ft 501 kts 139°
2026-05-04 10:30 44.35759 16.81622 39131 ft 502 kts 139°
2026-05-04 10:31 44.30485 16.88003 39125 ft 502 kts 139°
2026-05-04 10:32 44.12015 17.10227 39129 ft 502 kts 139°
2026-05-04 10:33 44.06717 17.16568 39125 ft 502 kts 139°
2026-05-04 10:33 44.01412 17.22899 39130 ft 503 kts 139°
2026-05-04 10:34 43.96095 17.29229 39135 ft 503 kts 139°
2026-05-04 10:34 43.90774 17.35550 39135 ft 504 kts 139°
2026-05-04 10:35 43.85451 17.41858 39135 ft 503 kts 139°
2026-05-04 10:35 43.80123 17.48156 39139 ft 504 kts 139°
2026-05-04 10:36 43.74675 17.54263 39143 ft 505 kts 146°
2026-05-04 10:36 43.68829 17.59640 39141 ft 505 kts 147°
2026-05-04 10:37 43.62916 17.64873 39141 ft 505 kts 147°
2026-05-04 10:37 43.56997 17.70077 39135 ft 504 kts 147°
2026-05-04 10:39 43.36347 17.88241 39129 ft 503 kts 147°
2026-05-04 10:40 43.30447 17.93407 39129 ft 503 kts 147°
2026-05-04 10:40 43.24546 17.98562 39131 ft 503 kts 147°
2026-05-04 10:41 43.18638 18.03710 39137 ft 503 kts 147°
2026-05-04 10:41 43.12771 18.08812 39139 ft 503 kts 147°
2026-05-04 10:42 43.06851 18.13947 39150 ft 504 kts 147°
2026-05-04 10:42 43.00930 18.19072 39156 ft 504 kts 147°
2026-05-04 10:43 42.95000 18.24192 39156 ft 504 kts 147°
2026-05-04 10:45 42.71224 18.44604 39176 ft 505 kts 147°
2026-05-04 10:45 42.65259 18.49696 39179 ft 507 kts 147°
2026-05-04 10:46 42.59283 18.54785 39177 ft 507 kts 147°
2026-05-04 10:46 42.53309 18.59861 39164 ft 507 kts 147°
2026-05-04 10:47 42.47322 18.64937 39153 ft 508 kts 148°
2026-05-04 10:47 42.41329 18.70005 39156 ft 508 kts 148°
2026-05-04 10:49 42.18333 18.89348 39169 ft 510 kts 147°
2026-05-04 10:50 42.12305 18.94391 39169 ft 510 kts 148°
2026-05-04 10:52 41.88141 19.14490 39164 ft 512 kts 147°
2026-05-04 10:52 41.82112 19.19477 39162 ft 513 kts 147°
2026-05-04 10:54 41.57754 19.39512 39157 ft 514 kts 148°
2026-05-04 10:56 41.33281 19.59461 39151 ft 516 kts 148°
2026-05-04 10:57 41.27144 19.64437 39151 ft 517 kts 148°
2026-05-04 10:57 41.21003 19.69403 39151 ft 517 kts 148°
2026-05-04 10:58 41.14864 19.74359 39150 ft 517 kts 148°
2026-05-04 10:58 41.08712 19.79312 39145 ft 517 kts 148°
2026-05-04 10:59 41.02569 19.84247 39143 ft 517 kts 148°
2026-05-04 10:59 40.96416 19.89180 39140 ft 517 kts 148°
2026-05-04 11:00 40.90258 19.94105 39140 ft 517 kts 148°
2026-05-04 11:02 40.65574 20.13743 39160 ft 518 kts 148°
2026-05-04 11:05 40.19105 20.50248 39139 ft 519 kts 148°
2026-05-04 11:06 40.12900 20.55074 39136 ft 519 kts 148°
2026-05-04 11:06 40.06730 20.59866 39133 ft 520 kts 148°
2026-05-04 11:10 39.61845 20.90952 39151 ft 524 kts 152°
2026-05-04 11:12 39.36072 21.08555 39147 ft 524 kts 152°
2026-05-04 11:12 39.29612 21.12944 39150 ft 525 kts 152°
2026-05-04 11:13 39.23143 21.17330 39152 ft 526 kts 152°
2026-05-04 11:13 39.16664 21.21713 39146 ft 526 kts 152°
2026-05-04 11:14 39.10182 21.26090 39149 ft 526 kts 152°
2026-05-04 11:16 38.84286 21.43483 39152 ft 525 kts 152°
2026-05-04 11:16 38.77797 21.47820 39151 ft 526 kts 152°
2026-05-04 11:17 38.71302 21.52151 39151 ft 526 kts 152°
2026-05-04 11:19 38.45317 21.69387 39163 ft 526 kts 152°
2026-05-04 11:19 38.38819 21.73674 39160 ft 526 kts 152°
2026-05-04 11:20 38.32308 21.77964 39162 ft 527 kts 152°
2026-05-04 11:20 38.25785 21.82252 39166 ft 527 kts 152°
2026-05-04 11:22 37.99704 21.99309 39169 ft 525 kts 153°
2026-05-04 11:23 37.93204 22.03538 39161 ft 525 kts 153°
2026-05-04 11:25 37.70439 22.18286 39155 ft 528 kts 153°
2026-05-04 11:25 37.63904 22.22500 39140 ft 527 kts 153°
2026-05-04 11:27 37.34499 22.41362 39145 ft 527 kts 154°
2026-05-04 11:28 37.27963 22.45530 39145 ft 526 kts 154°
2026-05-04 11:28 37.21435 22.49687 39149 ft 526 kts 154°
2026-05-04 11:29 37.14904 22.53836 39142 ft 526 kts 154°
2026-05-04 11:29 37.08375 22.57979 39146 ft 526 kts 154°
2026-05-04 11:33 36.62597 22.86785 39162 ft 528 kts 154°
2026-05-04 11:33 36.56027 22.90888 39171 ft 528 kts 155°
2026-05-04 11:34 36.49467 22.94977 39176 ft 528 kts 155°
2026-05-04 11:34 36.42902 22.99061 39180 ft 528 kts 155°
2026-05-04 11:35 36.37402 23.02476 39183 ft 527 kts 155°
2026-05-04 11:35 36.30882 23.06519 39183 ft 527 kts 155°
2026-05-04 11:36 36.24326 23.10576 39185 ft 527 kts 155°
2026-05-04 11:36 36.17765 23.14627 39182 ft 526 kts 155°
2026-05-04 11:37 36.11219 23.18662 39180 ft 526 kts 155°
2026-05-04 11:37 36.04666 23.22694 39178 ft 526 kts 155°
2026-05-04 11:38 35.98114 23.26718 39176 ft 526 kts 155°
2026-05-04 11:38 35.91566 23.30732 39178 ft 526 kts 155°
2026-05-04 11:39 35.85009 23.34744 39178 ft 526 kts 155°
2026-05-04 11:41 35.62064 23.48725 39184 ft 526 kts 156°
2026-05-04 11:41 35.55501 23.52707 39171 ft 526 kts 156°
2026-05-04 11:42 35.48935 23.56684 39183 ft 527 kts 156°
2026-05-04 11:42 35.42363 23.60657 39182 ft 526 kts 156°
2026-05-04 11:43 35.35793 23.64622 39175 ft 526 kts 156°
2026-05-04 11:43 35.29225 23.68577 39162 ft 527 kts 156°
2026-05-04 11:44 35.22644 23.72538 39172 ft 527 kts 157°
2026-05-04 11:44 35.16060 23.76486 39174 ft 527 kts 157°
2026-05-04 11:45 35.09478 23.80429 39168 ft 527 kts 157°
2026-05-04 11:45 35.02893 23.84367 39143 ft 527 kts 157°
2026-05-04 11:46 34.96306 23.88299 39161 ft 527 kts 157°
2026-05-04 11:46 34.89769 23.92194 39161 ft 527 kts 157°
2026-05-04 11:47 34.83176 23.96116 39162 ft 527 kts 157°
2026-05-04 11:47 34.76586 24.00028 39160 ft 527 kts 157°
2026-05-04 11:48 34.70005 24.03929 39166 ft 526 kts 157°
2026-05-04 11:48 34.63426 24.07822 39170 ft 526 kts 158°
2026-05-04 11:49 34.56855 24.11702 39171 ft 525 kts 158°
2026-05-04 11:49 34.50282 24.15577 39147 ft 525 kts 158°
2026-05-04 11:50 34.43719 24.19439 39172 ft 524 kts 158°
2026-05-04 11:50 34.37162 24.23291 39170 ft 524 kts 158°
2026-05-04 11:51 34.30605 24.27136 39170 ft 524 kts 158°
2026-05-04 11:51 34.24056 24.30970 39170 ft 523 kts 158°
2026-05-04 11:52 34.17500 24.34801 39169 ft 523 kts 158°
2026-05-04 11:52 34.10950 24.38622 39175 ft 522 kts 158°
2026-05-04 11:53 34.04408 24.42432 39174 ft 521 kts 158°
2026-05-04 11:53 33.98219 24.47033 39177 ft 527 kts 143°
2026-05-04 11:55 33.76212 24.70556 39171 ft 529 kts 140°
2026-05-04 11:56 33.70712 24.76438 39170 ft 529 kts 141°
2026-05-04 11:56 33.65208 24.82310 39167 ft 529 kts 141°
2026-05-04 11:57 33.59704 24.88174 39160 ft 530 kts 141°
2026-05-04 11:57 33.54185 24.94044 39160 ft 530 kts 141°
2026-05-04 11:58 33.48664 24.99906 39160 ft 530 kts 141°
2026-05-04 11:58 33.43142 25.05760 39161 ft 530 kts 141°
2026-05-04 11:59 33.37624 25.11598 39170 ft 529 kts 141°
2026-05-04 11:59 33.32108 25.17424 39174 ft 529 kts 141°
2026-05-04 12:00 33.26586 25.23245 39177 ft 529 kts 141°
2026-05-04 12:00 33.21095 25.29024 39174 ft 529 kts 141°
2026-05-04 12:01 33.15572 25.34827 39162 ft 529 kts 141°
2026-05-04 12:02 32.96249 25.55048 39164 ft 529 kts 142°
2026-05-04 12:03 32.90706 25.60826 39163 ft 530 kts 142°
2026-05-04 12:03 32.85160 25.66598 39163 ft 529 kts 142°
2026-05-04 12:04 32.79615 25.72359 39157 ft 529 kts 142°
2026-05-04 12:04 32.74070 25.78110 39161 ft 529 kts 142°
2026-05-04 12:05 32.68522 25.83854 39144 ft 529 kts 142°
2026-05-04 12:05 32.62969 25.89593 39157 ft 529 kts 142°
2026-05-04 12:06 32.57411 25.95327 39156 ft 529 kts 143°
2026-05-04 12:06 32.51862 26.01043 39157 ft 529 kts 143°
2026-05-04 12:07 32.46310 26.06751 39157 ft 528 kts 143°
2026-05-04 12:07 32.40793 26.12415 39157 ft 528 kts 143°
2026-05-04 12:08 32.35234 26.18112 39155 ft 529 kts 143°
2026-05-04 12:08 32.29668 26.23805 39157 ft 529 kts 143°
2026-05-04 12:09 32.24093 26.29500 39154 ft 530 kts 144°
2026-05-04 12:09 32.18510 26.35191 39154 ft 530 kts 144°
2026-05-04 12:10 32.12929 26.40872 39154 ft 530 kts 144°
2026-05-04 12:10 32.07347 26.46544 39154 ft 530 kts 144°
2026-05-04 12:11 32.01756 26.52217 39151 ft 530 kts 144°
2026-05-04 12:11 31.96170 26.57874 39150 ft 530 kts 144°
2026-05-04 12:12 31.90585 26.63522 39160 ft 529 kts 144°
2026-05-04 12:12 31.84999 26.69160 39165 ft 529 kts 144°
2026-05-04 12:14 31.62643 26.91634 39178 ft 528 kts 145°
2026-05-04 12:15 31.57051 26.97232 39180 ft 528 kts 145°
2026-05-04 12:15 31.51460 27.02820 39189 ft 528 kts 145°
2026-05-04 12:16 31.45865 27.08402 39198 ft 528 kts 145°
2026-05-04 12:16 31.40312 27.13935 39181 ft 529 kts 146°
2026-05-04 12:17 31.34708 27.19517 39211 ft 530 kts 145°
2026-05-04 12:17 31.29783 27.26036 39212 ft 539 kts 130°
2026-05-04 12:18 31.25491 27.33251 39209 ft 541 kts 128°
2026-05-04 12:18 31.21302 27.40568 39200 ft 542 kts 128°
2026-05-04 12:19 31.17105 27.47869 39183 ft 541 kts 128°
2026-05-04 12:19 31.12884 27.55146 39175 ft 541 kts 128°
2026-05-04 12:20 31.08609 27.62368 39170 ft 540 kts 129°
2026-05-04 12:20 31.04298 27.69549 39144 ft 540 kts 130°
2026-05-04 12:21 30.99990 27.76726 39157 ft 540 kts 130°
2026-05-04 12:21 30.95685 27.83904 39152 ft 540 kts 130°
2026-05-04 12:22 30.92110 27.89863 39153 ft 540 kts 130°
2026-05-04 12:22 30.87803 27.97030 39150 ft 540 kts 130°
2026-05-04 12:23 30.83491 28.04190 39147 ft 540 kts 130°
2026-05-04 12:23 30.79180 28.11337 39146 ft 539 kts 130°
2026-05-04 12:24 30.74871 28.18468 39142 ft 538 kts 130°
2026-05-04 12:24 30.70563 28.25582 39139 ft 538 kts 130°
2026-05-04 12:25 30.66249 28.32694 39138 ft 538 kts 130°
2026-05-04 12:25 30.61937 28.39793 39133 ft 537 kts 130°
2026-05-04 12:26 30.57631 28.46869 39129 ft 536 kts 130°
2026-05-04 12:26 30.53326 28.53927 39127 ft 535 kts 130°
2026-05-04 12:27 30.49051 28.60923 39119 ft 535 kts 130°
2026-05-04 12:27 30.44743 28.67963 39108 ft 535 kts 131°
2026-05-04 12:28 30.40434 28.74993 39113 ft 535 kts 131°
2026-05-04 12:28 30.36124 28.82011 39105 ft 535 kts 131°
2026-05-04 12:29 30.31811 28.89023 39111 ft 535 kts 131°
2026-05-04 12:29 30.27495 28.96026 39100 ft 534 kts 131°
2026-05-04 12:30 30.23178 29.03020 39077 ft 534 kts 131°
2026-05-04 12:30 30.18863 29.09998 39102 ft 533 kts 131°
2026-05-04 12:31 30.14563 29.16970 39100 ft 533 kts 131°
2026-05-04 12:31 30.10266 29.23951 39099 ft 533 kts 130°
2026-05-04 12:32 30.03921 29.34496 39097 ft 533 kts 130°
2026-05-04 12:33 29.99692 29.41514 39097 ft 532 kts 130°
2026-05-04 12:33 29.95453 29.48513 39097 ft 532 kts 130°
2026-05-04 12:34 29.91208 29.55503 39095 ft 532 kts 131°
2026-05-04 12:34 29.86967 29.62475 39097 ft 531 kts 131°
2026-05-04 12:35 29.82726 29.69434 39091 ft 530 kts 131°
2026-05-04 12:35 29.78484 29.76382 39096 ft 530 kts 131°
2026-05-04 12:36 29.74241 29.83321 39080 ft 530 kts 131°
2026-05-04 12:36 29.69996 29.90253 39092 ft 530 kts 131°
2026-05-04 12:37 29.65755 29.97166 39091 ft 529 kts 131°
2026-05-04 12:37 29.61503 30.04084 39089 ft 529 kts 131°
2026-05-04 12:38 29.57280 30.10943 39092 ft 529 kts 131°
2026-05-04 12:38 29.53028 30.17841 39091 ft 529 kts 132°
2026-05-04 12:39 29.48778 30.24721 39089 ft 529 kts 132°
2026-05-04 12:39 29.44520 30.31604 39090 ft 529 kts 132°
2026-05-04 12:40 29.40220 30.38434 39053 ft 524 kts 136°
2026-05-04 12:40 29.35367 30.44582 39092 ft 519 kts 141°
2026-05-04 12:41 29.30377 30.50556 39099 ft 518 kts 142°
2026-05-04 12:41 29.25371 30.56483 39099 ft 518 kts 142°
2026-05-04 12:42 29.20369 30.62413 39102 ft 518 kts 142°
2026-05-04 12:42 29.15371 30.68347 39101 ft 518 kts 142°
2026-05-04 12:43 29.10375 30.74276 39104 ft 518 kts 142°
2026-05-04 12:43 29.05378 30.80197 39106 ft 517 kts 142°
2026-05-04 12:44 29.00376 30.86115 39106 ft 517 kts 142°
2026-05-04 12:44 28.95372 30.92025 39110 ft 517 kts 142°
2026-05-04 12:45 28.90370 30.97924 39097 ft 517 kts 142°
2026-05-04 12:45 28.85365 31.03820 39106 ft 517 kts 142°
2026-05-04 12:46 28.80393 31.09666 39113 ft 517 kts 142°
2026-05-04 12:46 28.75387 31.15544 39113 ft 517 kts 142°
2026-05-04 12:47 28.70378 31.21416 39110 ft 517 kts 142°
2026-05-04 12:47 28.65455 31.27400 39104 ft 520 kts 140°
2026-05-04 12:48 28.60641 31.33554 39115 ft 521 kts 140°
2026-05-04 12:48 28.55818 31.39704 39115 ft 520 kts 140°
2026-05-04 12:49 28.50970 31.45817 39124 ft 520 kts 140°
2026-05-04 12:49 28.46114 31.51906 39123 ft 520 kts 140°
2026-05-04 12:50 28.41254 31.57989 39119 ft 519 kts 141°
2026-05-04 12:50 28.36400 31.64055 39119 ft 519 kts 141°
2026-05-04 12:51 28.31543 31.70117 39073 ft 519 kts 141°
2026-05-04 12:51 28.26681 31.76178 39112 ft 519 kts 141°
2026-05-04 12:52 28.21817 31.82233 39105 ft 519 kts 141°
2026-05-04 12:52 28.16959 31.88271 39106 ft 518 kts 141°
2026-05-04 12:53 28.12098 31.94305 39107 ft 518 kts 141°
2026-05-04 12:53 28.07240 32.00325 39098 ft 518 kts 141°
2026-05-04 12:54 28.02694 32.06736 39103 ft 532 kts 128°
2026-05-04 12:54 27.98986 32.14015 39083 ft 536 kts 126°
2026-05-04 12:55 27.95437 32.21440 39068 ft 537 kts 125°
2026-05-04 12:55 27.91900 32.28867 39065 ft 536 kts 126°
2026-05-04 12:56 27.88335 32.36277 39042 ft 536 kts 126°
2026-05-04 12:56 27.84755 32.43671 39020 ft 537 kts 126°
2026-05-04 12:57 27.81163 32.51069 39026 ft 537 kts 126°
2026-05-04 12:57 27.77572 32.58456 39022 ft 537 kts 126°
2026-05-04 12:58 27.73973 32.65847 39012 ft 537 kts 126°
2026-05-04 12:58 27.70404 32.73167 39014 ft 536 kts 126°
2026-05-04 12:59 27.66811 32.80522 39006 ft 535 kts 126°
2026-05-04 12:59 27.63211 32.87877 39003 ft 535 kts 126°
2026-05-04 13:00 27.59612 32.95215 39000 ft 534 kts 126°
2026-05-04 13:00 27.56014 33.02542 39006 ft 534 kts 126°
2026-05-04 13:01 27.52415 33.09860 39001 ft 534 kts 126°
2026-05-04 13:01 27.48815 33.17167 38987 ft 533 kts 126°
2026-05-04 13:02 27.45216 33.24460 39007 ft 532 kts 126°
2026-05-04 13:02 27.41618 33.31734 38988 ft 532 kts 127°
2026-05-04 13:03 27.38017 33.39002 38982 ft 532 kts 126°
2026-05-04 13:03 27.34418 33.46266 38968 ft 532 kts 127°
2026-05-04 13:04 27.30805 33.53527 38977 ft 532 kts 127°
2026-05-04 13:04 27.27209 33.60744 38977 ft 532 kts 127°
2026-05-04 13:05 27.23599 33.67981 38978 ft 532 kts 127°
2026-05-04 13:05 27.19956 33.75274 38966 ft 531 kts 127°
2026-05-04 13:06 27.16684 33.82764 38968 ft 538 kts 119°
2026-05-04 13:06 27.13872 33.90495 38965 ft 539 kts 118°
2026-05-04 13:07 27.11108 33.98328 38962 ft 539 kts 118°
2026-05-04 13:07 27.08343 34.06146 38963 ft 539 kts 118°
2026-05-04 13:08 27.05560 34.13954 38958 ft 538 kts 118°
2026-05-04 13:08 27.02770 34.21747 38963 ft 538 kts 118°
2026-05-04 13:09 26.99976 34.29539 38954 ft 539 kts 119°
2026-05-04 13:09 26.97169 34.37340 38952 ft 539 kts 119°
2026-05-04 13:10 26.94361 34.45131 38951 ft 539 kts 119°
2026-05-04 13:10 26.91548 34.52925 38945 ft 539 kts 119°
2026-05-04 13:11 26.88741 34.60689 38949 ft 538 kts 119°
2026-05-04 13:11 26.86385 34.67191 38947 ft 537 kts 119°
2026-05-04 13:12 26.83571 34.74939 38931 ft 537 kts 119°
2026-05-04 13:12 26.80773 34.82631 38944 ft 536 kts 119°
2026-05-04 13:13 26.77959 34.90353 38940 ft 536 kts 119°
2026-05-04 13:13 26.75139 34.98086 38941 ft 536 kts 119°
2026-05-04 13:14 26.72315 35.05810 38941 ft 536 kts 120°
2026-05-04 13:14 26.69486 35.13526 38942 ft 536 kts 120°
2026-05-04 13:15 26.66656 35.21235 38939 ft 536 kts 120°
2026-05-04 13:15 26.63823 35.28938 38936 ft 536 kts 120°
2026-05-04 13:16 26.60986 35.36636 38933 ft 536 kts 120°
2026-05-04 13:16 26.58145 35.44332 38932 ft 536 kts 120°
2026-05-04 13:17 26.55296 35.52018 38923 ft 535 kts 120°
2026-05-04 13:17 26.52385 35.59647 38936 ft 534 kts 121°
2026-05-04 13:18 26.49454 35.67259 38933 ft 533 kts 121°
2026-05-04 13:18 26.46531 35.74865 38933 ft 533 kts 121°
2026-05-04 13:19 26.43615 35.82462 38929 ft 531 kts 120°
2026-05-04 13:19 26.40709 35.90030 38934 ft 530 kts 120°
2026-05-04 13:20 26.37803 35.97577 38928 ft 529 kts 120°
2026-05-04 13:20 26.34895 36.05115 38930 ft 529 kts 121°
2026-05-04 13:21 26.31980 36.12655 38928 ft 529 kts 121°
2026-05-04 13:21 26.29061 36.20194 38923 ft 529 kts 121°
2026-05-04 13:22 26.26160 36.27671 38908 ft 529 kts 121°
2026-05-04 13:22 26.23248 36.35169 38906 ft 527 kts 121°
2026-05-04 13:23 26.20320 36.42716 38904 ft 528 kts 120°
2026-05-04 13:23 26.18537 36.50693 38904 ft 545 kts 98°
2026-05-04 13:24 26.18861 36.59180 38923 ft 551 kts 87°
2026-05-04 13:24 26.19734 36.67670 38948 ft 553 kts 86°
2026-05-04 13:25 26.21103 36.80438 38919 ft 554 kts 86°
2026-05-04 13:25 26.21959 36.88950 38929 ft 553 kts 86°
2026-05-04 13:26 26.22793 36.97461 38940 ft 553 kts 87°
2026-05-04 13:26 26.23621 37.05964 38926 ft 551 kts 87°
2026-05-04 13:27 26.24445 37.14450 38932 ft 550 kts 87°
2026-05-04 13:27 26.25262 37.22911 38939 ft 550 kts 87°
2026-05-04 13:28 26.26071 37.31375 38949 ft 549 kts 87°
2026-05-04 13:28 26.26876 37.39821 38947 ft 548 kts 87°
2026-05-04 13:29 26.27675 37.48259 38922 ft 547 kts 86°
2026-05-04 13:29 26.28468 37.56687 38947 ft 546 kts 87°
2026-05-04 13:30 26.29255 37.65098 38942 ft 546 kts 87°
2026-05-04 13:30 26.30039 37.73507 38928 ft 546 kts 87°
2026-05-04 13:31 26.30676 37.80392 38926 ft 547 kts 87°
2026-05-04 13:31 26.31453 37.88835 38917 ft 547 kts 87°
2026-05-04 13:32 26.32221 37.97268 38908 ft 548 kts 87°
2026-05-04 13:32 26.32989 38.05735 38913 ft 550 kts 87°
2026-05-04 13:33 26.33755 38.14218 38913 ft 550 kts 87°
2026-05-04 13:33 26.34514 38.22652 38908 ft 550 kts 87°
2026-05-04 13:34 26.35275 38.31142 38916 ft 550 kts 87°
2026-05-04 13:34 26.36020 38.39626 38926 ft 550 kts 88°
2026-05-04 13:35 26.37130 38.52363 38954 ft 550 kts 88°
2026-05-04 13:36 26.37867 38.60859 38933 ft 550 kts 88°
2026-05-04 13:36 26.38599 38.69356 38924 ft 551 kts 88°
2026-05-04 13:37 26.39326 38.77853 38940 ft 550 kts 88°
2026-05-04 13:37 26.40047 38.86347 38942 ft 550 kts 88°
2026-05-04 13:38 26.40763 38.94847 38944 ft 551 kts 88°
2026-05-04 13:38 26.41475 39.03350 38941 ft 551 kts 88°
2026-05-04 13:39 26.42183 39.11860 38951 ft 551 kts 88°
2026-05-04 13:39 26.42886 39.20382 38942 ft 552 kts 88°
2026-05-04 13:40 26.43468 39.27480 38935 ft 553 kts 88°